FENGYUN 2F (38049 NORAD) Tracking and Keplerian Element Data

This shows tracking and keplerian element data for the satellite.

Feedback or suggestion? Click here.




ElementValue
Catalog38049
NameFENGYUN 2F
Epoch Orbit4673
Epoch Day286.81930522
Epoch Year2024
RAAN72.8211
Inclination6.0282
Eccentricity0.0002405
Argument of Perigee137.181
Mean Anonmoly30.3208
Mean Motion0.99135779
Decay Rate-9.9E-07
L11 38049U 12002A 24286.81930522 -.00000099 00000+0 00000+0 0 9998
L22 38049 6.0282 72.8211 0002405 137.1810 30.3208 0.99135779 46733



Live tracking and technical data element details for FENGYUN 2F (NORAD 38049). FENGYUN 2F can be tracked NOW for your location showing map with azimuth and elevation plus other details from your city location.







IsCatalogInMostPopularTable: catalog: 38049, numindb: 418
Update: records affected: 1



GetName: 38049 FENGYUN 2F

Hit Count: updated at: Thu, 15 May 2025 10:48:07 GMT